Whitefield, NH

7:12 AM EDT on August 20, 2017 (GMT -0400)
Mount Washington Regional

Weather History for KHIE - August, 2013

Change the Weather History Date:

Thursday, August 29, 2013

  Actual Average Record
Temperature  
Mean Temperature 65 °F -  
Max Temperature 75 °F 73 °F 84 °F (2004)
Min Temperature 55 °F 44 °F 35 °F (2003)
Growing Degree Days 15 (Base 50)    
Moisture  
Dew Point 59 °F    
Average Humidity 85    
Maximum Humidity 94    
Minimum Humidity 64    
Precipitation  
Precipitation 0.32 in - - ()
Sea Level Pressure  
Sea Level Pressure 30.05 in    
Wind  
Wind Speed 1 mph (ENE)    
Max Wind Speed 9 mph    
Max Gust Speed -    
Visibility 7 miles    
Events Fog , Rain    
Averages and records for this station are not official NWS values.
T = Trace of Precipitation, MM = Missing Value Source: NWS Daily Summary

Daily Weather History Graph

Daily Weather History Graph

Search for Another Location

Airport or City:

Trip Planner

Search our weather history database for the weather conditions in past years. The results will help you decide how hot, cold, wet, or windy it might be!

Date:

Astronomy

Aug. 29, 2013 Rise Set
Actual Time 6:05 AM EDT 7:27 PM EDT
Civil Twilight 5:35 AM EDT 7:57 PM EDT
Nautical Twilight 4:59 AM EDT 8:33 PM EDT
Astronomical Twilight 4:20 AM EDT 9:12 PM EDT
Moon No Moon Rise 3:00 PM EDT (8/29)
Length of Visible Light 14h 21m
Length of Day
13h 21m
Last Quarter, 38% of the Moon is Illuminated
Aug 29
Last Quarter
Sep 5
New
Sep 12
First Quarter
Sep 19
Full
Sep 26
Last Quarter

Hourly Weather History & Observations

Time (EDT) Temp. Dew Point Humidity Pressure Visibility Wind Dir Wind Speed Gust Speed Precip Events Conditions
12:52 AM 62.1 °F 60.1 °F 93% 30.00 in 9.0 mi Calm Calm - N/A   Clear
1:52 AM 61.0 °F 59.0 °F 93% 30.00 in 10.0 mi Calm Calm - N/A   Clear
2:16 AM 59.0 °F 55.4 °F 88% 30.01 in 2.5 mi Calm Calm - N/A   Partly Cloudy
2:28 AM 60.8 °F 57.2 °F 88% 30.00 in 1.8 mi Calm Calm - N/A   Scattered Clouds
2:52 AM 57.0 °F 55.0 °F 93% 29.99 in 0.8 mi Calm Calm - N/A   Mist
3:52 AM 57.0 °F 55.0 °F 93% 30.02 in 0.5 mi Calm Calm - N/A Fog Fog
3:58 AM 57.2 °F 55.4 °F 94% 30.03 in 1.2 mi Calm Calm - N/A   Overcast
4:01 AM 57.2 °F 55.4 °F 94% 30.03 in 3.0 mi Calm Calm - N/A   Mostly Cloudy
4:08 AM 57.2 °F 55.4 °F 94% 30.03 in 1.5 mi Calm Calm - N/A   Mostly Cloudy
4:10 AM 57.2 °F 55.4 °F 94% 30.03 in 0.8 mi Calm Calm - N/A   Mostly Cloudy
4:40 AM 55.4 °F 53.6 °F 94% 30.04 in 1.5 mi Calm Calm - 0.00 in   Overcast
4:42 AM 55.4 °F 53.6 °F 94% 30.04 in 4.0 mi Calm Calm - 0.00 in   Overcast
4:52 AM 55.9 °F 54.0 °F 93% 30.04 in 9.0 mi Calm Calm - 0.00 in   Mostly Cloudy
4:58 AM 55.4 °F 53.6 °F 94% 30.04 in 2.5 mi Calm Calm - 0.00 in Rain Light Rain
5:05 AM 55.4 °F 53.6 °F 94% 30.05 in 1.2 mi Calm Calm - 0.00 in Rain Light Rain
5:10 AM 55.4 °F 53.6 °F 94% 30.05 in 4.0 mi Calm Calm - 0.00 in   Partly Cloudy
5:52 AM 57.0 °F 55.0 °F 93% 30.05 in 10.0 mi SSW 3.5 mph - 0.00 in   Mostly Cloudy
6:52 AM 61.0 °F 57.9 °F 90% 30.06 in 10.0 mi Calm Calm - N/A   Mostly Cloudy
7:52 AM 64.0 °F 61.0 °F 90% 30.08 in 10.0 mi Calm Calm - 0.00 in Rain Light Rain
8:52 AM 66.9 °F 61.0 °F 81% 30.08 in 10.0 mi Calm Calm - 0.00 in   Overcast
9:52 AM 69.1 °F 62.1 °F 78% 30.09 in 10.0 mi Calm Calm - N/A   Overcast
10:28 AM 69.8 °F 60.8 °F 73% 30.10 in 10.0 mi Calm Calm - N/A   Overcast
10:52 AM 70.0 °F 60.1 °F 71% 30.09 in 10.0 mi Calm Calm - N/A   Overcast
11:18 AM 69.8 °F 62.6 °F 78% 30.09 in 9.0 mi Variable 3.5 mph - 0.01 in Rain Light Rain
11:28 AM 69.8 °F 62.6 °F 78% 30.09 in 10.0 mi East 9.2 mph - 0.01 in   Overcast
11:52 AM 70.0 °F 61.0 °F 73% 30.08 in 10.0 mi ENE 8.1 mph - 0.01 in   Overcast
12:27 PM 71.6 °F 60.8 °F 69% 30.08 in 10.0 mi ENE 9.2 mph - N/A   Overcast
12:43 PM 71.6 °F 60.8 °F 69% 30.08 in 10.0 mi East 9.2 mph - N/A   Overcast
12:52 PM 72.0 °F 60.1 °F 66% 30.08 in 10.0 mi East 5.8 mph - N/A   Mostly Cloudy
1:52 PM 72.0 °F 61.0 °F 68% 30.06 in 10.0 mi ENE 5.8 mph - N/A   Overcast
2:52 PM 75.0 °F 62.1 °F 64% 30.05 in 10.0 mi North 5.8 mph - 0.00 in   Overcast
3:52 PM 73.9 °F 61.0 °F 64% 30.04 in 10.0 mi Calm Calm - N/A   Clear
4:52 PM 73.9 °F 61.0 °F 64% 30.04 in 10.0 mi NE 5.8 mph - 0.00 in Rain Light Rain
5:52 PM 68.0 °F 62.1 °F 81% 30.04 in 10.0 mi East 8.1 mph - 0.02 in Rain Light Rain
6:38 PM 69.8 °F 62.6 °F 78% 30.03 in 10.0 mi East 4.6 mph - 0.00 in   Mostly Cloudy
6:52 PM 68.0 °F 61.0 °F 78% 30.03 in 10.0 mi Calm Calm - 0.00 in   Scattered Clouds
7:52 PM 64.9 °F 59.0 °F 81% 30.04 in 10.0 mi East 3.5 mph - N/A   Overcast
8:52 PM 64.0 °F 59.0 °F 84% 30.05 in 10.0 mi East 3.5 mph - N/A   Overcast
9:08 PM 64.4 °F 59.0 °F 83% 30.05 in 10.0 mi NE 3.5 mph - N/A   Overcast
9:34 PM 62.6 °F 59.0 °F 88% 30.05 in 2.0 mi Calm Calm - 0.12 in Rain Heavy Rain
9:41 PM 62.6 °F 60.8 °F 94% 30.05 in 1.8 mi East 4.6 mph - 0.18 in Rain Heavy Rain
9:48 PM 62.6 °F 60.8 °F 94% 30.05 in 2.5 mi ENE 4.6 mph - 0.21 in Rain Rain
9:52 PM 62.1 °F 59.0 °F 90% 30.05 in 2.5 mi ESE 3.5 mph - 0.24 in Rain Heavy Rain
10:10 PM 62.6 °F 60.8 °F 94% 30.05 in 8.0 mi Calm Calm - 0.05 in Rain Light Rain
10:24 PM 62.6 °F 60.8 °F 94% 30.05 in 9.0 mi Calm Calm - 0.05 in Rain Light Rain
10:52 PM 63.0 °F 60.1 °F 90% 30.04 in 10.0 mi Calm Calm - 0.05 in   Overcast
11:52 PM 62.1 °F 60.1 °F 93% 30.04 in 10.0 mi Calm Calm - N/A   Overcast